Погода в Мбуре

Сенегал     14°26′32″N   16°58′51″W
темп.,
°C
ветер,
м/с
пор.,
м/с
влажн.,
%
обл.,
%
осадки,
мм/ч
давл.,
гПа
погр.,
м
9 августа, вт
вт900:00+28зсз347816 0.0 1013538
03:00+27з347997 0.0 1012456
06:00+27зюз358022 0.0 1012390
09:00+28зюз337851 0.1 1014693
12:00+29зсз437197 0.2 1014882
15:00+29з667793 0.1 1012667
18:00+29з667692 0.3 1012701
21:00+28зсз568078 0.0 1013620
10 августа, ср
ср1000:00+27зсз568120 0.0 1013580
03:00+27з578215 0.1 1011548
06:00+27зсз568292 0.1 1012466
09:00+28зсз6777100 0.0 1013703
12:00+29зсз666870 0.0 1013837
15:00+30зсз776779 0.0 1010858
18:00+29з677361 0.0 1010904
21:00+28з6676100 0.1 1012703
11 августа, чт
чт1100:00+27з6779100 0.1 1012894
03:00+27зсз6878100 0.1 1011845
06:00+27зсз687996 0.3 1010763
09:00+28з6670100 0.1 10111045
12:00+28з556993 0.1 1012960
15:00+28з446730 0.0 1010768
18:00+29юз456481 0.0 1010784
21:00+28зюз6767100 0.0 1011815
12 августа, пт
пт1200:00+28зюз6870100 0.0 1012830
03:00+27зюз6773100 0.0 1011768
06:00+27з567390 0.0 1011648
09:00+27з3475100 0.0 1012620
12:00+29зюз326767 0.0 1012969
15:00+28зюз5473100 0.1 1011505
18:00+28зюз5473100 0.4 1011794
21:00+27зюз448092 0.3 1012530
13 августа, сб
сб1300:00+27зюз458198 0.6 1013545
03:00+26зюз2382100 0.4 1012400
06:00+26юз228494 1.4 1012180
09:00+26ююз2280100 1.6 1013329
12:00+28юз5573100 2.6 1013846
15:00+28юз5470100 0.6 1012849
18:00+28юз337325 0.9 1011761
21:00+26ссз1180100 1.8 1013158